This is the latest recevied weather packets stored in our database for station/object SA7AHC. If no packets are shown the sender has not sent any weather packets the latest 10 day(s).
| Time | Temp. | Humidity | Pressure | Rain* | Wind** | Luminosity | Snow |
|---|---|---|---|---|---|---|---|
| 1788278327 | 16.67° C | 81% | 1012.2 hPa | 0 mm | - | 79 W/m² | - |
| 1788277727 | 17.22° C | 81% | 1012 hPa | 0 mm | - | 90 W/m² | - |
| 1788277125 | 17.22° C | 79% | 1011.8 hPa | 0 mm | - | 63 W/m² | - |
| 1788276523 | 17.78° C | 77% | 1011.8 hPa | 0 mm | - | 53 W/m² | - |
| 1788275921 | 17.78° C | 75% | 1011.7 hPa | 0 mm | - | 56 W/m² | - |
| 1788275321 | 18.33° C | 74% | 1011.7 hPa | 0 mm | - | 53 W/m² | - |
| 1788274718 | 18.33° C | 71% | 1011.8 hPa | 0 mm | - | 56 W/m² | - |
| 1788274118 | 18.89° C | 72% | 1011.8 hPa | 0 mm | - | 381 W/m² | - |
| 1788273515 | 18.89° C | 73% | 1011.8 hPa | 0 mm | - | 390 W/m² | - |
| 1788272915 | 18.33° C | 75% | 1011.8 hPa | 0 mm | - | 427 W/m² | - |
| 1788272317 | 18.89° C | 76% | 1011.6 hPa | 0 mm | - | 450 W/m² | - |
| 1788271715 | 19.44° C | 73% | 1011.6 hPa | 0 mm | - | 114 W/m² | - |
| 1788271115 | 19.44° C | 74% | 1011.6 hPa | 0 mm | - | 548 W/m² | - |
| 1788270515 | 19.44° C | 75% | 1011.7 hPa | 0 mm | - | 673 W/m² | - |
| 1788269916 | 18.89° C | 78% | 1011.6 hPa | 0 mm | - | 652 W/m² | - |
| 1788269315 | 18.89° C | 78% | 1011.6 hPa | 0 mm | - | 589 W/m² | - |
| 1788268715 | 18.89° C | 79% | 1011.7 hPa | 0 mm | - | 104 W/m² | - |
| 1788268119 | 18.33° C | 83% | 1011.6 hPa | 0 mm | - | 227 W/m² | - |
| 1788267513 | 17.78° C | 85% | 1011.5 hPa | 0 mm | - | 462 W/m² | - |
| 1788266914 | 17.22° C | 86% | 1011.5 hPa | 0 mm | - | 338 W/m² | - |
| 1788266314 | 17.78° C | 85% | 1011.3 hPa | 0 mm | - | 243 W/m² | - |
| 1788265709 | 18.33° C | 84% | 1011.4 hPa | 0 mm | - | 272 W/m² | - |
| 1788265110 | 18.33° C | 87% | 1011.6 hPa | 0 mm | - | 835 W/m² | - |
| 1788264503 | 16.67° C | 90% | 1011.5 hPa | 0 mm | - | 290 W/m² | - |
| 1788263891 | 16.67° C | 90% | 1011.4 hPa | 0 mm | - | 202 W/m² | - |
* Rain latest hour (hover to see other rain measurements)
** Current wind speed in m/s (hover to see current wind gust speed)